• In India
  • List of Countries
  • For 7 days
  • Water Temperature
  • Satellite Maps
  • Weather Map
  • Weather Widgets
  • user-avatar
    Login

    Hourly Weather Jewłach

    Today, 20 July, Friday

    Time Temperature Precipitation Wind Pressure Humidity
    00:00 +32°C° 0 mm 2 mps 751 mmHg 32%
    01:00 +31°C° 0 mm 2 mps 751 mmHg 33%
    02:00 +31°C° 0 mm 2 mps 751 mmHg 34%
    03:00 +30°C° 0 mm 2 mps 751 mmHg 35%
    04:00 +31°C° 0 mm 2 mps 752 mmHg 36%
    05:00 +31°C° 0 mm 2 mps 752 mmHg 36%
    06:00 +31°C° 0 mm 2 mps 752 mmHg 37%
    07:00 +34°C° 0 mm 2 mps 752 mmHg 34%
    08:00 +36°C° 0 mm 2 mps 752 mmHg 30%
    09:00 +37°C° 0 mm 2 mps 752 mmHg 28%
    10:00 +38°C° 0 mm 3 mps 751 mmHg 27%
    11:00 +39°C° 0 mm 3 mps 751 mmHg 26%
    12:00 +42°C° 0 mm 3 mps 751 mmHg 24%
    13:00 +42°C° 0 mm 3 mps 751 mmHg 24%
    14:00 +43°C° 0 mm 3 mps 750 mmHg 24%
    15:00 +43°C° 0 mm 3 mps 750 mmHg 24%
    16:00 +42°C° 0 mm 4 mps 750 mmHg 25%
    17:00 +42°C° 0 mm 4 mps 750 mmHg 27%
    18:00 +41°C° 0 mm 5 mps 750 mmHg 29%
    19:00 +39°C° 0 mm 5 mps 751 mmHg 35%
    20:00 +36°C° 0 mm 4 mps 751 mmHg 41%
    21:00 +34°C° 0 mm 4 mps 752 mmHg 47%
    22:00 +33°C° 0.1 mm 4 mps 752 mmHg 51%
    23:00 +31°C° 0.1 mm 3 mps 752 mmHg 55%

    Tomorrow, 21 July, Saturday

    Time Temperature Precipitation Wind Pressure Humidity
    00:00 +30°C° 0.1 mm 2 mps 752 mmHg 58%
    01:00 +30°C° 0 mm 2 mps 753 mmHg 60%
    02:00 +29°C° 0 mm 1 mps 753 mmHg 62%
    03:00 +29°C° 0 mm 1 mps 753 mmHg 64%
    04:00 +29°C° 0 mm 1 mps 753 mmHg 62%
    05:00 +30°C° 0 mm 2 mps 753 mmHg 60%
    06:00 +30°C° 0 mm 2 mps 753 mmHg 58%
    07:00 +32°C° 0 mm 2 mps 753 mmHg 51%
    08:00 +34°C° 0 mm 3 mps 753 mmHg 45%
    09:00 +36°C° 0 mm 3 mps 753 mmHg 38%
    10:00 +37°C° 0 mm 3 mps 753 mmHg 36%
    11:00 +38°C° 0 mm 2 mps 753 mmHg 33%
    12:00 +39°C° 0 mm 2 mps 753 mmHg 30%
    13:00 +40°C° 0 mm 2 mps 752 mmHg 29%
    14:00 +40°C° 0 mm 2 mps 752 mmHg 28%
    15:00 +41°C° 0 mm 2 mps 752 mmHg 27%
    16:00 +40°C° 0.1 mm 2 mps 752 mmHg 27%
    17:00 +40°C° 0.1 mm 2 mps 752 mmHg 28%
    18:00 +40°C° 0.1 mm 2 mps 752 mmHg 28%
    19:00 +37°C° 0.3 mm 3 mps 753 mmHg 32%
    20:00 +35°C° 0.3 mm 3 mps 753 mmHg 37%
    21:00 +33°C° 0.3 mm 4 mps 754 mmHg 41%
    22:00 +31°C° 0.4 mm 3 mps 754 mmHg 46%
    23:00 +31°C° 0.4 mm 3 mps 755 mmHg 51%

    Day after tomorrow, 22 July, Sunday

    Time Temperature Precipitation Wind Pressure Humidity
    00:00 +30°C° 0.4 mm 2 mps 755 mmHg 56%
    01:00 +29°C° 0.1 mm 2 mps 755 mmHg 57%
    02:00 +29°C° 0.1 mm 2 mps 755 mmHg 58%
    03:00 +29°C° 0.1 mm 1 mps 755 mmHg 59%
    04:00 +29°C° 0.2 mm 1 mps 755 mmHg 58%
    05:00 +29°C° 0.2 mm 1 mps 755 mmHg 58%
    06:00 +29°C° 0.2 mm 1 mps 755 mmHg 57%
    07:00 +31°C° 0.1 mm 2 mps 755 mmHg 53%
    08:00 +32°C° 0.1 mm 2 mps 755 mmHg 48%
    09:00 +34°C° 0.1 mm 2 mps 755 mmHg 44%
    10:00 +35°C° 0 mm 2 mps 754 mmHg 40%
    11:00 +37°C° 0 mm 2 mps 754 mmHg 37%
    12:00 +38°C° 0 mm 2 mps 754 mmHg 34%
    13:00 +38°C° 0 mm 2 mps 753 mmHg 31%
    14:00 +39°C° 0 mm 3 mps 753 mmHg 29%
    15:00 +40°C° 0 mm 3 mps 752 mmHg 26%
    16:00 +40°C° 0 mm 3 mps 752 mmHg 27%
    17:00 +41°C° 0 mm 4 mps 752 mmHg 27%
    18:00 +40°C° 0 mm 4 mps 752 mmHg 27%
    19:00 +37°C° 0.1 mm 4 mps 753 mmHg 30%
    20:00 +36°C° 0.1 mm 4 mps 753 mmHg 32%
    21:00 +34°C° 0.1 mm 5 mps 754 mmHg 35%
    22:00 +33°C° 0 mm 4 mps 754 mmHg 38%
    23:00 +31°C° 0 mm 3 mps 754 mmHg 42%

    23 July, Monday

    Time Temperature Precipitation Wind Pressure Humidity
    00:00 +30°C° 0 mm 2 mps 754 mmHg 45%
    01:00 +30°C° 0 mm 2 mps 754 mmHg 46%
    02:00 +29°C° 0 mm 1 mps 754 mmHg 47%
    03:00 +29°C° 0 mm 1 mps 754 mmHg 48%
    04:00 +29°C° 0 mm 1 mps 754 mmHg 48%
    05:00 +29°C° 0 mm 2 mps 754 mmHg 47%
    06:00 +30°C° 0 mm 2 mps 754 mmHg 46%
    07:00 +31°C° 0 mm 2 mps 753 mmHg 43%
    08:00 +34°C° 0 mm 3 mps 753 mmHg 39%
    09:00 +35°C° 0 mm 3 mps 753 mmHg 35%
    10:00 +36°C° 0.1 mm 2 mps 753 mmHg 33%
    11:00 +37°C° 0.1 mm 2 mps 752 mmHg 30%
    12:00 +38°C° 0.1 mm 2 mps 752 mmHg 28%
    13:00 +39°C° 0 mm 2 mps 751 mmHg 26%
    14:00 +40°C° 0 mm 2 mps 750 mmHg 25%
    15:00 +41°C° 0 mm 2 mps 750 mmHg 23%
    16:00 +41°C° 0 mm 2 mps 750 mmHg 23%
    17:00 +40°C° 0 mm 1 mps 750 mmHg 23%
    18:00 +40°C° 0 mm 1 mps 750 mmHg 23%
    19:00 +38°C° 0.2 mm 2 mps 751 mmHg 26%
    20:00 +36°C° 0.2 mm 2 mps 752 mmHg 29%
    21:00 +34°C° 0.2 mm 3 mps 752 mmHg 32%
    22:00 +33°C° 0.4 mm 3 mps 752 mmHg 35%
    23:00 +31°C° 0.4 mm 3 mps 753 mmHg 39%

    24 July, Tuesday

    Time Temperature Precipitation Wind Pressure Humidity
    00:00 +30°C° 0.4 mm 3 mps 753 mmHg 42%
    01:00 +30°C° 0.1 mm 4 mps 753 mmHg 44%
    02:00 +30°C° 0.1 mm 4 mps 753 mmHg 45%
    03:00 +29°C° 0.1 mm 5 mps 752 mmHg 47%
    04:00 +30°C° 0 mm 5 mps 753 mmHg 46%
    05:00 +30°C° 0 mm 5 mps 753 mmHg 46%
    06:00 +30°C° 0 mm 5 mps 753 mmHg 45%
    07:00 +33°C° 0 mm 5 mps 753 mmHg 42%
    08:00 +34°C° 0 mm 6 mps 753 mmHg 38%
    09:00 +36°C° 0 mm 6 mps 753 mmHg 34%
    10:00 +37°C° 0 mm 5 mps 752 mmHg 31%
    11:00 +40°C° 0 mm 5 mps 752 mmHg 28%
    12:00 +41°C° 0 mm 4 mps 752 mmHg 26%
    13:00 +42°C° 0 mm 4 mps 752 mmHg 24%
    14:00 +42°C° 0 mm 3 mps 751 mmHg 23%
    15:00 +43°C° 0 mm 3 mps 751 mmHg 22%
    16:00 +41°C° 0 mm 2 mps 752 mmHg 22%
    17:00 +41°C° 0 mm 1 mps 752 mmHg 22%
    18:00 +41°C° 0 mm 1 mps 752 mmHg 22%
    19:00 +39°C° 0 mm 1 mps 753 mmHg 25%
    20:00 +37°C° 0 mm 2 mps 754 mmHg 28%
    21:00 +35°C° 0 mm 3 mps 754 mmHg 30%
    22:00 +34°C° 0 mm 2 mps 754 mmHg 33%
    23:00 +34°C° 0 mm 2 mps 754 mmHg 37%

    25 July, Wednesday

    Time Temperature Precipitation Wind Pressure Humidity
    00:00 +32°C° 0 mm 2 mps 755 mmHg 40%
    01:00 +32°C° 0 mm 2 mps 755 mmHg 42%
    02:00 +31°C° 0 mm 2 mps 755 mmHg 44%
    03:00 +31°C° 0 mm 2 mps 755 mmHg 47%
    04:00 +31°C° 0 mm 1 mps 755 mmHg 46%
    05:00 +32°C° 0 mm 1 mps 755 mmHg 46%
    06:00 +32°C° 0 mm 1 mps 755 mmHg 46%
    07:00 +33°C° 0 mm 1 mps 755 mmHg 43%
    08:00 +35°C° 0 mm 1 mps 755 mmHg 40%
    09:00 +37°C° 0 mm 2 mps 755 mmHg 37%
    10:00 +38°C° 0 mm 2 mps 754 mmHg 34%
    11:00 +40°C° 0 mm 2 mps 754 mmHg 31%
    12:00 +41°C° 0 mm 2 mps 753 mmHg 29%
    13:00 +42°C° 0 mm 2 mps 753 mmHg 27%
    14:00 +43°C° 0 mm 2 mps 753 mmHg 26%
    15:00 +43°C° 0 mm 2 mps 752 mmHg 24%
    16:00 +44°C° 0 mm 3 mps 752 mmHg 24%
    17:00 +44°C° 0 mm 3 mps 752 mmHg 24%
    18:00 +44°C° 0 mm 4 mps 752 mmHg 24%
    19:00 +42°C° 0 mm 4 mps 753 mmHg 26%
    20:00 +40°C° 0 mm 4 mps 753 mmHg 29%
    21:00 +37°C° 0 mm 5 mps 754 mmHg 32%
    22:00 +36°C° 0 mm 4 mps 754 mmHg 34%
    23:00 +35°C° 0 mm 3 mps 754 mmHg 36%
    Show more